This is the latest recevied weather packets stored in our database for station/object WB5HZM-3. If no packets are shown the sender has not sent any weather packets the latest 10 day(s).
| Time | Temp. | Humidity | Pressure | Rain* | Wind** | Luminosity | Snow |
|---|---|---|---|---|---|---|---|
| 1777778597 | 20.56° C | 64% | 1021.6 hPa | 0 mm | - | - | - |
| 1777778013 | 21.11° C | 63% | 1021.6 hPa | 0 mm | - | - | - |
| 1777777409 | 21.67° C | 62% | 1021.4 hPa | 0 mm | - | - | - |
| 1777776808 | 21.67° C | 60% | 1021.4 hPa | 0 mm | - | - | - |
| 1777776203 | 22.22° C | 59% | 1021.2 hPa | 0 mm | - | - | - |
| 1777775599 | 22.22° C | 62% | 1021 hPa | 0 mm | - | - | - |
| 1777774999 | 22.22° C | 58% | 1021 hPa | 0 mm | - | - | - |
| 1777774414 | 22.22° C | 58% | 1020.8 hPa | 0 mm | - | - | - |
| 1777773810 | 22.22° C | 54% | 1020.7 hPa | 0 mm | - | - | - |
| 1777773210 | 22.22° C | 56% | 1020.6 hPa | 0 mm | - | - | - |
| 1777772606 | 22.22° C | 54% | 1020.5 hPa | 0 mm | - | - | - |
| 1777772000 | 22.78° C | 54% | 1020.4 hPa | 0 mm | - | - | - |
| 1777771395 | 22.78° C | 52% | 1020.3 hPa | 0 mm | - | - | - |
| 1777770814 | 22.78° C | 53% | 1020.3 hPa | 0 mm | - | - | - |
| 1777770210 | 22.78° C | 55% | 1020.2 hPa | 0 mm | - | - | - |
| 1777769606 | 22.78° C | 51% | 1020.1 hPa | 0 mm | - | - | - |
| 1777769005 | 22.78° C | 50% | 1019.8 hPa | 0 mm | - | - | - |
| 1777768399 | 22.78° C | 53% | 1019.7 hPa | 0 mm | - | - | - |
| 1777767813 | 22.78° C | 49% | 1019.6 hPa | 0 mm | - | - | - |
| 1777767206 | 23.33° C | 51% | 1019.5 hPa | 0 mm | - | - | - |
| 1777766605 | 23.33° C | 49% | 1019.4 hPa | 0 mm | - | - | - |
| 1777766001 | 23.33° C | 50% | 1019.4 hPa | 0 mm | - | - | - |
| 1777765395 | 23.33° C | 53% | 1019.4 hPa | 0 mm | - | - | - |
| 1777764814 | 23.33° C | 50% | 1019.4 hPa | 0 mm | - | - | - |
| 1777764207 | 23.33° C | 50% | 1019.5 hPa | 0 mm | - | - | - |
* Rain latest hour (hover to see other rain measurements)
** Current wind speed in m/s (hover to see current wind gust speed)